Home > Weather > Stäfa > Past weeks

Flag for Switzerland Weather for the Past 2 Weeks in Stäfa, Zurich, Switzerland

Now
34 °F

Fog.


Feels Like: 34 °F
Forecast: 34 / 50 °F
Wind: 2 mph from Northeast

Location: Zurich-Kloten

Current Time: Feb 6, 2016 at 1:14:51 AM

Latest Report: Feb 6, 2016 at 12:20 AM


Visibility: 0 mi

Pressure: 30.24 "Hg

Humidity: 100%

Dew point: 34 °F

Location of StäfaLocation

Historic Weather in Stäfa — Graph

°F

Stäfa Temperature Yesterday

Maximum temperature yesterday: 50 °F (at 3:50 PM)
Minimum temperature yesterday: 32 °F (at 10:20 PM)
Average temperature yesterday: 42 °F

High & Low Weather Summary for the Past Weeks

 TemperatureHumidityPressure
High55 °F (Feb 1, 11:20 AM)100% (Jan 23, 7:20 AM)30.63 "Hg (Jan 23, 7:20 AM)
Low27 °F (Jan 21, 11:20 PM)47% (Jan 25, 2:50 PM)29.95 "Hg (Jan 31, 1:50 PM)
Average41 °F82%30.33 "Hg
* Reported Jan 21 11:20 PM — Feb 5 11:50 PM, Stäfa, Weather by CustomWeather, © 2016

Note: Actual official high and low records may vary slightly from our data, if they occured in-between our weather recording intervals... More about our weather records

Advertising

Stäfa Weather History for the Previous 24 Hours

 ConditionsComfort  
Time TempWeatherWind HumidityBarometerVisibility
11:50 PM
Fri, Feb 5
34 °FFog.2 mph100%30.24 "Hg0 mi
11:20 PM34 °FLight fog.2 mph100%30.24 "Hg1 mi
10:50 PM32 °FLight fog.3 mph100%30.24 "Hg1 mi
10:20 PM32 °FLight fog.2 mph100%30.24 "Hg1 mi
9:50 PM34 °FChilly.No wind100%30.27 "Hg3 mi
9:20 PM36 °FClear.2 mph100%30.27 "Hg10 mi
8:50 PM36 °FClear.2 mph100%30.27 "Hg10 mi
8:20 PM39 °FClear.No wind93%30.27 "Hg10 mi
7:50 PM39 °FClear.1 mph93%30.27 "Hg10 mi
7:20 PM37 °FClear.2 mph93%30.27 "Hg10 mi
6:50 PM43 °FClear.1 mph81%30.27 "Hg10 mi
6:20 PM43 °FClear.No wind76%30.27 "Hg10 mi
5:50 PM45 °FClear.1 mph76%30.30 "Hg10 mi
5:20 PM46 °FPassing clouds.3 mph76%30.30 "HgN/A
4:50 PM48 °FPassing clouds.2 mph71%30.30 "HgN/A
4:20 PM50 °FPassing clouds.No wind67%30.30 "HgN/A
3:50 PM50 °FPassing clouds.1 mph67%30.30 "HgN/A
3:20 PM48 °FPassing clouds.3 mph71%30.33 "HgN/A
2:50 PM48 °FScattered clouds.2 mph71%30.33 "HgN/A
2:20 PM48 °FPartly sunny.1 mph71%30.33 "HgN/A
1:50 PM46 °FPartly sunny.5 mph76%30.36 "HgN/A
1:20 PM46 °FPartly sunny.5 mph82%30.36 "HgN/A
12:50 PM46 °FPartly sunny.3 mph82%30.39 "HgN/A
12:20 PM46 °FPartly sunny.2 mph76%30.39 "HgN/A
11:50 AM45 °FBroken clouds.2 mph81%30.39 "HgN/A
11:20 AM43 °FPartly sunny.2 mph87%30.42 "HgN/A
10:50 AM43 °FBroken clouds.2 mph87%30.39 "HgN/A
10:20 AM43 °FBroken clouds.6 mph87%30.39 "HgN/A
9:50 AM43 °FBroken clouds.5 mph87%30.39 "HgN/A
9:20 AM41 °FBroken clouds.2 mph93%30.39 "HgN/A
8:50 AM41 °FBroken clouds.2 mph93%30.39 "HgN/A
8:20 AM41 °FDrizzle. Broken clouds.2 mph93%30.39 "HgN/A
7:50 AM41 °FBroken clouds.5 mph93%30.39 "HgN/A
7:20 AM41 °FPassing clouds.2 mph93%30.39 "HgN/A
6:20 AM41 °FPassing clouds.2 mph93%30.39 "HgN/A
5:50 AM41 °FPassing clouds.3 mph87%30.39 "HgN/A
5:20 AM41 °FPassing clouds.6 mph87%30.39 "HgN/A
4:50 AM41 °FPartly cloudy.7 mph87%30.39 "HgN/A
4:20 AM41 °FPassing clouds.7 mph87%30.39 "HgN/A
3:20 AM39 °FPassing clouds.12 mph93%30.36 "HgN/A
2:50 AM39 °FPassing clouds.12 mph93%30.36 "HgN/A
2:20 AM39 °FPassing clouds.10 mph93%30.36 "HgN/A
1:50 AM39 °FPassing clouds.13 mph93%30.36 "HgN/A
Weather by CustomWeather, © 2016

See weather overviewHow to use our weather pages